Location: Namasale
(1.5000°N, 32.6167°E)
Time: 19:22:16
(UTC+00:00)

Courier 1B - Pass Details

Date: 24 April 2021
Orbit: 962 x 1209 km, 28.3° (Epoch: 10 May)

Event Time Altitude Azimuth Distance (km) Brightness Sun altitude
Rises 04:17:00 0° 233° (SW) 4,097 10.2 7.5°
Reaches altitude 10° 04:19:56 10° 230° (SW) 3,116 9.6 8.2°
Maximum altitude 04:27:37 64° 150° (SSE) 1,266 8.4 10.1°
Drops below altitude 10° 04:34:52 10° 70° (ENE) 2,960 12.8 11.8°
Sets 04:37:35 0° 67° (ENE) 3,880 12.5 12.5°
